RYR25UZ LIPH-EGNX

Flight info

Callsign RYR25UZ
Flight time N/A
Altitude 38000
Route ROKIB DCT BRENO DCT KUNOD L608 TEDGO DCT ADENU L608 DENUT L610 HEMEL
Aircraft B38M/M-SDE1FGHILORVWXY/HB1

Departure

Time 2026-04-30 14:09
Airport Treviso Airport (LIPH)

Arrival

Time N/A
Airport East Midlands Airport (EGNX)
Time Latitude Longitude Altitude Speed Heading
2026-04-30 13:59 45.65395 12.20482 68 ft 0 kts 340°
2026-04-30 13:59 45.65385 12.20487 68 ft 2 kts 339°
2026-04-30 14:00 45.65371 12.20495 68 ft 2 kts 340°
2026-04-30 14:00 45.65345 12.20513 68 ft 2 kts 301°
2026-04-30 14:00 45.65341 12.20534 68 ft 2 kts 261°
2026-04-30 14:01 45.65346 12.20554 68 ft 2 kts 245°
2026-04-30 14:01 45.65352 12.20574 68 ft 2 kts 251°
2026-04-30 14:01 45.65354 12.20582 68 ft 0 kts 249°
2026-04-30 14:03 45.65353 12.20578 68 ft 2 kts 249°
2026-04-30 14:03 45.65339 12.20526 68 ft 9 kts 249°
2026-04-30 14:03 45.65308 12.20409 68 ft 15 kts 249°
2026-04-30 14:03 45.65237 12.20291 68 ft 16 kts 206°
2026-04-30 14:04 45.65134 12.20223 68 ft 15 kts 205°
2026-04-30 14:04 45.65048 12.20134 68 ft 16 kts 231°
2026-04-30 14:04 45.64999 12.19975 68 ft 18 kts 249°
2026-04-30 14:04 45.64949 12.19785 68 ft 21 kts 249°
2026-04-30 14:05 45.64891 12.19568 68 ft 24 kts 249°
2026-04-30 14:05 45.64829 12.19336 68 ft 25 kts 249°
2026-04-30 14:05 45.64767 12.19102 68 ft 25 kts 248°
2026-04-30 14:05 45.64704 12.18864 68 ft 24 kts 249°
2026-04-30 14:06 45.64646 12.18646 68 ft 22 kts 249°
2026-04-30 14:06 45.64548 12.18276 68 ft 18 kts 250°
2026-04-30 14:07 45.64502 12.17943 68 ft 8 kts 257°
2026-04-30 14:07 45.64469 12.17956 68 ft 8 kts 88°
2026-04-30 14:07 45.64492 12.18064 68 ft 14 kts 69°
2026-04-30 14:08 45.64513 12.18146 68 ft 21 kts 69°
2026-04-30 14:08 45.64661 12.18702 68 ft 95 kts 69°
2026-04-30 14:08 45.65362 12.21330 220 ft 155 kts 69°
2026-04-30 14:09 45.65810 12.22857 608 ft 174 kts 65°
2026-04-30 14:09 45.66626 12.24166 1283 ft 177 kts 35°
2026-04-30 14:09 45.68874 12.23848 2501 ft 180 kts 309°
2026-04-30 14:10 45.69398 12.22261 3082 ft 182 kts 281°
2026-04-30 14:10 45.69619 12.20422 3257 ft 195 kts 275°
2026-04-30 14:10 45.69788 12.18372 3746 ft 217 kts 274°